User: anonymous   Login
Location: Unspecified
(0.0000°N, 0.0000°E)
Time: 19:07:48
(UTC+00:00)
Language:

IRIDE FM4 - Orbit

View from above orbital plane
View from above orbital plane
View from above satellite
View from above satellite

Ground track
Ground track

The orbit is defined by the following mean orbital elements,

1 66698U          26145.10681737 +.00000000 +00000-0 +24974-3 0 00008
2 66698  97.4188 218.9675 0005714  91.6179 268.5710 15.19444921    01
Epoch (UTC): 25 May 2026 02:33:49
Eccentricity: 0.0005714
inclination: 97.4188°
perigee height: 504 km
apogee height: 511 km
right ascension of ascending node: 218.9675°
argument of perigee: 91.6179°
revolutions per day: 15.19444921
mean anomaly at epoch: 268.5710°

The dashed part of the orbit path shows where the satellite is in the earth's shadow,  

DLR